Location: Avon Lake
(41.5219°N, 93.5010°W)
Time: 01:28:48
(UTC+00:00)

Tiangong - Pass Details

Date: 25 April 2024
Orbit: 372 x 375 km, 41.5° (Epoch: 20 May)

Event Time Altitude Azimuth Distance (km) Brightness Sun altitude
Rises 02:06:13 0° 277° (W) 2,262 3.2 -11.3°
Reaches altitude 10° 02:08:18 10° 276° (W) 1,403 1.9 -11.6°
Maximum altitude 02:11:27 74° 192° (SSW) 399 -2.2 -12.1°
Enters shadow 02:13:16 23° 109° (ESE) 868 -1.0 -12.4°
